Temp
-12 -12 -12 -12 -12 -13 -13 -13 -13 -13 -13 -13 -13 -13 -13 -13 -13 -13 -13 -13 -13 -13 -13 -13 -12 -13 -13 -13 -12 -13 -13 -13 -13 -13 -12 -12 -12 -12 -12 -12 -12 -12
-12 -12 -12 -12 -13 -13 -13 -13 -13 -13 -13 -13 -13 -13 -13 -13 -13 -13 -13 -13 -13 -12 -13 -13 -12 -13 -13 -13 -13 -13 -13 -13 -13 -12 -12 -13 -13 -12 -12 -12 -12 -12
-12 -12 -12 -12 -13 -13 -13 -13 -13 -13 -13 -13 -13 -13 -13 -13 -13 -13 -13 -13 -13 -13 -13 -13 -13 -13 -13 -13 -13 -13 -13 -13 -12 -12 -12 -13 -13 -12 -12 -12 -11 -11
-12 -12 -12 -13 -13 -13 -13 -13 -13 -13 -13 -13 -13 -13 -13 -13 -14 -14 -13 -13 -13 -13 -13 -13 -13 -13 -13 -13 -13 -13 -13 -13 -13 -13 -12 -12 -12 -13 -12 -12 -11 -11
-13 -13 -13 -13 -13 -13 -13 -13 -13 -13 -13 -13 -13 -13 -13 -13 -14 -14 -14 -14 -13 -13 -13 -13 -13 -13 -13 -13 -13 -13 -13 -13 -13 -13 -12 -12 -12 -12 -12 -12 -12 -12
-13 -13 -13 -13 -13 -13 -13 -13 -13 -13 -13 -13 -13 -13 -13 -13 -14 -14 -14 -14 -14 -14 -14 -13 -13 -13 -13 -13 -13 -13 -13 -13 -13 -13 -12 -12 -12 -12 -12 -12 -12 -12
-13 -13 -13 -13 -13 -13 -13 -13 -14 -14 -14 -13 -13 -13 -13 -13 -14 -14 -14 -14 -14 -14 -14 -13 -13 -13 -13 -13 -13 -13 -13 -13 -13 -12 -12 -11 -11 -11 -12 -11 -11 -12
-13 -13 -13 -13 -14 -14 -14 -14 -14 -14 -14 -14 -13 -13 -13 -13 -13 -14 -14 -13 -13 -14 -14 -13 -13 -13 -13 -13 -13 -13 -13 -13 -13 -13 -12 -12 -11 -11 -11 -11 -12 -12
-13 -13 -13 -14 -14 -14 -14 -14 -14 -14 -14 -14 -14 -13 -13 -13 -13 -14 -14 -13 -13 -13 -13 -13 -13 -13 -13 -13 -13 -13 -13 -13 -13 -13 -13 -12 -12 -12 -12 -12 -12 -12
-13 -13 -14 -14 -14 -14 -14 -14 -14 -14 -14 -14 -14 -14 -14 -13 -13 -13 -13 -13 -13 -13 -13 -13 -13 -13 -13 -13 -13 -13 -13 -13 -13 -13 -13 -13 -13 -13 -12 -12 -12 -12
-13 -14 -14 -14 -14 -14 -14 -14 -14 -14 -14 -14 -14 -14 -14 -14 -13 -13 -13 -13 -13 -13 -13 -13 -13 -13 -13 -13 -13 -13 -13 -13 -13 -13 -13 -13 -13 -13 -13 -12 -12 -12
-13 -14 -14 -14 -14 -14 -14 -14 -14 -14 -14 -14 -14 -14 -14 -14 -14 -14 -14 -13 -13 -13 -13 -13 -13 -13 -13 -13 -13 -13 -13 -13 -13 -13 -13 -13 -13 -13 -13 -13 -13 -13
-14 -14 -14 -14 -14 -14 -14 -14 -14 -14 -14 -14 -14 -14 -14 -14 -14 -14 -14 -14 -13 -13 -13 -13 -13 -13 -13 -13 -13 -13 -13 -13 -13 -13 -13 -13 -13 -13 -13 -13 -13 -13
-14 -14 -14 -14 -14 -14 -14 -15 -15 -15 -14 -14 -14 -14 -14 -14 -14 -14 -14 -14 -14 -13 -13 -14 -13 -13 -14 -14 -14 -14 -14 -14 -14 -13 -13 -13 -13 -13 -13 -13 -13 -13
-14 -14 -14 -14 -14 -14 -14 -15 -15 -15 -15 -14 -14 -14 -14 -14 -14 -14 -14 -14 -14 -13 -13 -14 -14 -14 -14 -14 -14 -14 -14 -14 -14 -14 -14 -14 -14 -14 -14 -13 -13 -13
-14 -14 -14 -14 -14 -14 -15 -15 -15 -15 -15 -15 -14 -14 -14 -14 -14 -14 -14 -14 -14 -14 -14 -14 -14 -14 -14 -14 -14 -14 -14 -14 -14 -14 -14 -14 -14 -14 -14 -14 -14 -14
-14 -14 -14 -14 -15 -15 -15 -15 -15 -15 -15 -15 -15 -15 -15 -15 -14 -14 -14 -14 -14 -14 -14 -14 -14 -14 -14 -14 -14 -14 -14 -14 -14 -14 -14 -14 -14 -14 -14 -14 -14 -14
-14 -14 -15 -15 -15 -15 -15 -15 -15 -15 -15 -15 -15 -15 -15 -15 -15 -15 -15 -14 -14 -14 -14 -14 -14 -14 -14 -14 -14 -14 -14 -14 -14 -14 -14 -14 -14 -14 -14 -14 -14 -14
-15 -15 -15 -15 -15 -15 -15 -15 -15 -15 -15 -15 -15 -15 -15 -15 -15 -15 -15 -15 -15 -15 -15 -14 -14 -14 -14 -14 -14 -14 -14 -14 -14 -15 -14 -14 -14 -14 -14 -14 -14 -14
-15 -15 -15 -15 -15 -15 -15 -15 -15 -15 -15 -15 -15 -15 -15 -15 -15 -15 -15 -15 -15 -15 -15 -15 -15 -15 -15 -14 -14 -14 -14 -14 -14 -14 -14 -14 -14 -14 -14 -14 -14 -14
-15 -15 -15 -15 -15 -15 -16 -16 -16 -16 -15 -15 -15 -16 -16 -16 -15 -15 -15 -15 -15 -15 -15 -15 -15 -15 -15 -15 -15 -14 -14 -14 -14 -14 -14 -14 -15 -15 -14 -14 -15 -14
-15 -15 -16 -16 -16 -16 -16 -16 -16 -16 -16 -16 -16 -16 -16 -16 -16 -16 -15 -15 -15 -15 -15 -15 -15 -15 -15 -15 -15 -15 -15 -15 -14 -14 -14 -15 -15 -15 -15 -15 -15 -15
-16 -16 -16 -16 -16 -16 -16 -16 -16 -16 -16 -16 -16 -16 -16 -16 -16 -16 -16 -16 -16 -15 -15 -16 -16 -15 -15 -15 -15 -15 -15 -15 -15 -15 -15 -15 -15 -15 -15 -15 -15 -15
-16 -16 -16 -16 -16 -16 -16 -16 -16 -16 -16 -16 -16 -16 -16 -16 -16 -16 -16 -16 -16 -16 -16 -16 -16 -16 -16 -16 -16 -16 -16 -15 -15 -15 -15 -15 -15 -15 -15 -15 -15 -15
-16 -16 -16 -16 -16 -16 -16 -16 -16 -16 -16 -16 -16 -16 -16 -16 -16 -16 -16 -16 -16 -16 -16 -16 -16 -16 -16 -16 -16 -16 -16 -16 -16 -16 -16 -15 -16 -16 -16 -16 -16 -16
-16 -16 -16 -16 -16 -16 -16 -16 -16 -16 -16 -16 -16 -16 -16 -16 -16 -16 -16 -16 -16 -16 -16 -16 -16 -16 -16 -16 -16 -16 -16 -16 -16 -16 -16 -16 -16 -16 -16 -16 -16 -16
Height
5804 5803 5802 5801 5800 5798 5797 5795 5793 5791 5789 5787 5784 5782 5779 5775 5771 5767 5763 5759 5757 5756 5754 5754 5754 5755 5755 5755 5756 5756 5757 5758 5759 5759 5760 5761 5760 5761 5761 5762 5762 5762
5802 5801 5800 5799 5797 5795 5794 5792 5790 5788 5786 5784 5781 5778 5775 5771 5767 5762 5757 5753 5750 5749 5748 5748 5748 5750 5750 5751 5752 5752 5753 5755 5756 5756 5757 5758 5758 5758 5759 5759 5759 5759
5799 5799 5798 5796 5795 5793 5791 5789 5787 5785 5783 5781 5778 5775 5771 5767 5763 5757 5751 5747 5744 5743 5743 5743 5744 5745 5747 5748 5749 5750 5751 5752 5753 5753 5754 5755 5755 5756 5756 5757 5757 5756
5797 5796 5795 5793 5792 5790 5788 5787 5785 5783 5781 5778 5775 5772 5768 5764 5759 5752 5747 5743 5741 5740 5740 5740 5741 5742 5743 5744 5745 5747 5749 5749 5750 5751 5752 5752 5753 5753 5755 5755 5755 5754
5795 5793 5792 5790 5789 5787 5786 5784 5783 5781 5778 5776 5773 5769 5765 5761 5756 5750 5744 5741 5739 5738 5738 5738 5739 5740 5740 5741 5743 5744 5745 5746 5747 5748 5749 5750 5750 5750 5751 5752 5752 5752
5792 5791 5789 5788 5786 5785 5783 5782 5780 5778 5776 5773 5771 5768 5763 5759 5754 5748 5743 5741 5739 5737 5736 5737 5738 5739 5739 5740 5741 5741 5742 5744 5745 5746 5746 5745 5745 5746 5747 5748 5749 5750
5789 5788 5786 5785 5784 5782 5781 5779 5778 5776 5774 5771 5769 5766 5762 5757 5753 5747 5743 5741 5740 5738 5737 5737 5738 5738 5739 5739 5739 5740 5741 5742 5743 5743 5743 5740 5739 5741 5743 5744 5745 5746
5786 5785 5783 5782 5781 5780 5778 5777 5775 5773 5771 5769 5766 5764 5761 5757 5752 5747 5743 5741 5739 5738 5737 5737 5737 5738 5738 5738 5738 5738 5740 5741 5741 5741 5741 5738 5737 5738 5740 5741 5741 5742
5784 5782 5781 5780 5779 5777 5776 5774 5773 5771 5769 5767 5764 5762 5759 5756 5752 5748 5744 5741 5739 5738 5737 5737 5737 5737 5738 5737 5737 5737 5738 5738 5738 5738 5739 5738 5737 5737 5738 5738 5738 5738
5781 5780 5778 5777 5776 5775 5774 5772 5770 5768 5767 5765 5762 5760 5758 5755 5751 5748 5745 5741 5738 5737 5736 5736 5736 5736 5736 5736 5736 5736 5736 5736 5736 5736 5737 5736 5736 5736 5736 5736 5736 5735
5778 5777 5776 5775 5773 5772 5771 5770 5768 5766 5764 5762 5760 5758 5756 5753 5750 5747 5745 5741 5739 5737 5736 5735 5735 5734 5734 5734 5734 5735 5735 5734 5735 5735 5735 5735 5734 5734 5734 5735 5734 5734
5776 5775 5773 5772 5771 5770 5769 5767 5766 5764 5762 5760 5758 5756 5754 5751 5749 5746 5744 5742 5739 5737 5735 5734 5734 5733 5733 5732 5732 5732 5732 5733 5733 5733 5734 5733 5732 5732 5733 5733 5733 5733
5773 5772 5771 5769 5768 5767 5766 5765 5763 5762 5760 5758 5756 5754 5752 5750 5747 5745 5744 5741 5739 5737 5735 5733 5732 5732 5731 5731 5731 5731 5731 5731 5731 5732 5732 5731 5731 5731 5731 5731 5732 5732
5771 5770 5768 5767 5766 5765 5763 5762 5761 5759 5758 5756 5754 5753 5751 5748 5746 5744 5743 5741 5739 5737 5735 5733 5732 5730 5730 5730 5730 5730 5730 5729 5729 5729 5730 5730 5730 5730 5730 5729 5729 5730
5768 5767 5766 5765 5763 5762 5761 5759 5758 5757 5755 5754 5752 5750 5749 5747 5745 5743 5742 5740 5738 5737 5735 5733 5731 5730 5728 5728 5728 5728 5728 5727 5727 5727 5728 5728 5729 5729 5728 5727 5727 5728
5765 5764 5763 5762 5761 5760 5758 5757 5756 5754 5753 5752 5750 5748 5747 5746 5744 5742 5740 5739 5737 5736 5734 5732 5731 5729 5728 5727 5726 5726 5726 5725 5725 5725 5726 5727 5727 5726 5727 5726 5726 5726
5761 5761 5760 5760 5759 5757 5756 5754 5753 5752 5751 5750 5748 5747 5745 5744 5742 5740 5739 5737 5736 5735 5733 5731 5730 5728 5727 5726 5725 5725 5724 5723 5723 5723 5724 5725 5724 5724 5725 5725 5725 5724
5759 5758 5757 5757 5756 5755 5753 5752 5751 5750 5748 5747 5746 5745 5743 5742 5740 5739 5737 5735 5734 5733 5732 5730 5728 5727 5726 5725 5724 5723 5722 5722 5721 5721 5721 5722 5722 5722 5722 5723 5722 5722
5756 5755 5755 5754 5753 5752 5751 5749 5748 5747 5746 5745 5744 5742 5741 5740 5738 5737 5736 5734 5733 5731 5729 5728 5727 5725 5724 5723 5722 5722 5721 5721 5720 5719 5719 5719 5719 5719 5720 5719 5719 5719
5753 5752 5751 5751 5750 5749 5748 5747 5745 5744 5743 5742 5741 5740 5739 5737 5736 5735 5734 5733 5731 5730 5728 5727 5725 5724 5723 5722 5721 5720 5720 5719 5719 5718 5717 5716 5716 5717 5717 5716 5716 5716
5750 5749 5748 5747 5747 5746 5745 5744 5743 5741 5740 5739 5738 5737 5736 5735 5734 5733 5732 5730 5729 5728 5727 5725 5724 5723 5722 5720 5719 5719 5718 5717 5716 5716 5715 5714 5714 5714 5714 5714 5714 5714
5747 5746 5745 5744 5743 5743 5742 5741 5740 5739 5737 5736 5735 5734 5733 5732 5731 5729 5729 5728 5727 5726 5725 5724 5722 5721 5720 5719 5718 5717 5716 5716 5715 5714 5713 5712 5712 5711 5712 5712 5712 5712
5744 5743 5742 5741 5740 5739 5739 5738 5737 5736 5735 5733 5732 5731 5730 5729 5728 5727 5726 5725 5724 5723 5722 5721 5720 5719 5718 5717 5716 5715 5714 5714 5713 5712 5711 5710 5710 5709 5709 5709 5709 5709
5740 5740 5739 5738 5737 5736 5735 5734 5733 5732 5731 5730 5729 5728 5727 5726 5725 5724 5723 5722 5721 5720 5719 5718 5717 5717 5716 5715 5714 5713 5712 5711 5711 5710 5709 5708 5707 5707 5706 5706 5705 5705
5737 5736 5735 5734 5733 5732 5732 5731 5730 5729 5727 5726 5725 5724 5723 5722 5721 5720 5719 5718 5717 5716 5715 5715 5714 5713 5712 5712 5712 5711 5710 5709 5708 5707 5706 5706 5705 5704 5703 5702 5702 5701
5734 5733 5732 5731 5730 5729 5728 5727 5726 5725 5724 5722 5721 5720 5719 5718 5717 5716 5715 5714 5714 5713 5711 5711 5710 5709 5708 5708 5707 5707 5706 5706 5705 5704 5703 5702 5702 5701 5700 5699 5698 5698
Wind_Speed
21 22 23 23 24 24 25 27 29 30 31 32 35 37 38 39 41 42 43 42 38 35 33 32 32 31 30 29 27 27 27 25 24 23 23 24 23 23 21 20 23 25
21 22 23 23 23 24 25 28 30 31 32 33 36 37 39 40 42 44 43 40 35 32 31 30 29 29 29 28 26 25 24 24 23 23 23 23 23 23 20 19 22 25
22 23 23 23 23 24 26 28 30 31 32 34 36 38 39 41 43 43 38 32 28 26 26 25 25 26 27 27 26 23 22 23 22 22 22 21 21 20 18 19 24 26
23 23 23 23 23 24 26 28 30 31 32 34 36 37 39 41 43 40 32 24 21 20 20 19 20 22 24 25 25 22 20 21 20 20 19 19 19 18 19 23 26 27
23 24 24 23 24 25 27 28 29 30 32 34 36 37 39 40 42 38 28 20 16 15 14 15 17 20 21 21 20 19 19 19 18 17 15 16 18 19 21 24 24 25
24 24 24 24 25 26 27 28 29 30 31 34 35 37 38 39 40 37 28 19 14 12 11 11 12 14 15 15 15 16 17 18 17 14 14 18 21 21 23 24 25 28
24 24 24 25 26 26 28 28 29 30 31 33 35 35 37 38 39 37 30 21 15 12 11 11 10 10 12 13 15 17 17 16 16 14 16 20 22 23 25 26 27 30
25 25 25 26 27 27 28 28 29 30 31 32 34 35 35 36 37 37 33 24 17 14 13 12 12 12 13 14 15 17 17 16 16 15 18 21 21 23 27 28 27 29
26 25 26 27 27 28 28 28 29 30 31 31 33 34 34 35 36 36 34 28 20 16 15 13 13 13 15 15 14 14 15 15 16 17 19 23 23 22 23 23 24 28
26 26 27 28 28 28 28 28 29 30 30 31 32 33 34 34 35 35 34 31 24 18 16 14 13 14 14 15 15 15 16 15 15 17 18 21 23 21 19 18 18 19
27 27 28 29 29 28 28 28 29 30 30 30 32 33 34 34 34 34 34 33 28 22 18 17 16 15 14 14 15 16 16 16 15 15 16 18 19 19 17 17 15 14
27 28 29 30 30 29 28 28 28 29 30 31 31 33 34 33 33 33 32 32 31 27 21 19 18 17 15 14 14 14 15 16 15 15 15 16 16 14 13 14 15 15
28 29 30 30 30 30 29 29 28 28 30 31 31 31 32 33 33 33 32 31 31 30 26 22 19 17 16 14 13 13 13 14 15 15 16 16 16 14 13 15 15 15
29 30 30 31 31 31 30 29 28 28 29 31 31 31 31 32 33 32 31 30 29 29 28 25 21 18 16 15 13 13 14 14 15 16 16 16 16 16 15 15 15 15
29 30 31 32 32 32 31 30 29 28 29 30 32 31 30 31 32 32 31 30 28 28 27 25 23 20 18 16 14 14 14 15 15 15 16 16 16 16 16 16 16 15
30 31 32 32 32 32 31 30 29 29 29 30 32 32 31 30 30 31 31 30 28 27 26 25 24 22 20 17 15 14 14 15 16 15 15 14 15 16 16 18 17 16
31 32 32 33 33 32 31 30 30 30 30 30 31 32 32 31 30 29 30 29 28 27 25 24 24 22 21 19 17 15 15 15 17 17 16 15 16 16 17 18 19 18
31 32 33 33 33 32 31 30 30 30 31 31 31 31 32 31 30 28 28 28 28 27 26 24 23 22 21 20 19 17 15 14 15 17 18 17 17 18 19 21 22 21
32 33 33 33 32 32 31 31 31 31 32 32 32 31 31 30 29 28 27 26 26 26 26 25 24 23 21 20 20 19 18 16 15 16 17 18 18 19 21 24 24 23
32 32 32 32 32 32 31 32 32 32 33 33 33 32 31 30 29 28 27 26 24 24 24 23 23 22 21 20 19 19 19 18 17 16 17 18 19 20 22 24 24 22
32 31 31 31 32 32 32 32 32 33 34 34 34 33 32 31 30 29 28 27 25 24 23 22 22 21 20 20 19 19 18 18 18 16 16 17 19 20 21 23 24 23
31 31 31 32 32 33 33 33 33 34 35 36 35 34 33 32 31 30 29 28 26 25 23 22 21 20 20 19 19 19 18 17 17 16 15 15 16 17 19 21 24 26
32 32 32 33 33 34 35 35 35 36 37 37 36 35 34 33 31 30 29 28 27 25 24 22 21 20 20 19 19 19 18 17 17 16 15 15 15 15 16 18 21 24
32 32 33 34 35 35 36 37 37 37 38 38 37 36 35 34 32 30 28 26 25 25 24 24 23 22 21 21 20 20 20 19 18 17 16 16 16 16 16 17 18 20
31 31 32 33 34 35 36 36 37 37 38 38 38 37 36 34 33 32 30 27 26 25 25 25 25 25 24 24 23 23 22 22 22 21 20 19 19 18 18 18 19 19
30 30 31 32 33 34 35 35 36 36 37 37 37 37 36 36 34 33 32 31 29 28 27 26 26 27 27 27 26 26 25 26 26 26 25 25 24 23 22 22 21 21
Wind_Direction
303 306 308 308 310 314 316 318 319 321 322 321 321 322 322 320 316 313 309 304 297 287 278 273 271 268 264 262 261 259 257 256 254 256 262 266 264 261 260 266 268 255
303 305 306 308 312 317 320 320 321 323 323 323 324 325 324 321 318 315 309 302 294 284 276 272 268 264 261 259 257 256 254 251 252 256 261 264 263 261 260 264 267 258
302 304 305 309 315 320 321 321 322 324 325 327 328 328 325 324 323 320 314 305 294 284 277 272 268 264 261 257 255 256 252 247 249 254 258 263 264 261 260 264 264 255
302 303 305 310 317 320 320 320 322 325 328 330 332 331 329 331 330 327 322 314 302 290 280 274 272 268 261 253 248 250 249 246 249 255 258 262 263 256 247 250 258 252
301 303 306 311 317 318 318 320 323 326 330 332 334 334 334 336 337 334 331 324 314 301 293 288 281 272 261 250 246 248 249 249 254 256 257 262 266 265 254 246 254 255
299 302 306 311 314 315 317 321 324 327 330 333 335 336 338 340 342 341 338 332 325 318 311 305 292 275 264 256 251 250 250 252 256 252 253 260 253 252 258 252 248 250
298 301 305 309 312 314 318 322 324 327 330 332 334 337 340 344 345 346 344 336 328 324 317 312 302 284 271 264 257 254 252 252 253 241 239 249 234 227 248 257 250 247
295 300 304 307 311 314 319 322 323 326 329 331 333 336 342 346 348 350 350 341 328 319 315 311 304 291 279 272 264 260 257 253 251 238 231 240 237 234 249 259 255 253
294 299 303 306 310 315 319 321 322 325 329 331 332 336 341 346 349 353 354 349 335 320 316 314 308 298 286 277 270 265 265 259 253 246 239 242 248 251 256 259 256 251
294 299 303 305 309 314 317 318 320 324 328 330 332 335 339 344 348 353 357 355 346 331 322 320 317 310 293 278 273 272 271 268 261 256 253 252 255 260 265 270 264 248
294 298 301 304 308 312 314 316 319 323 326 329 331 334 338 342 346 351 357 358 354 345 330 321 319 317 304 284 278 279 276 273 269 263 258 255 255 258 261 265 261 240
293 297 300 303 306 310 312 314 318 321 325 329 332 334 337 340 344 348 354 357 356 353 344 328 319 317 312 296 283 284 281 275 270 263 255 247 242 239 240 246 246 230
292 296 299 302 305 307 310 313 317 320 323 327 331 334 337 340 342 346 350 354 355 354 352 341 326 316 313 303 288 285 284 278 270 264 259 252 244 237 231 233 233 223
290 294 298 301 303 304 307 312 316 319 322 325 329 333 336 339 341 343 346 350 351 352 353 349 339 325 314 304 292 287 287 283 275 268 266 263 257 249 239 231 229 225
289 293 296 298 301 303 306 311 314 318 321 323 326 330 334 337 339 340 342 345 347 348 350 351 347 337 324 311 299 292 289 286 280 272 268 266 262 256 246 238 233 231
288 291 294 297 299 302 306 309 313 316 319 321 324 327 332 335 337 338 339 340 342 344 346 348 349 344 334 323 310 298 289 284 280 274 269 269 271 266 251 239 234 233
287 290 293 295 298 301 304 307 310 314 317 320 322 325 329 332 335 336 336 336 338 339 341 343 345 345 340 332 323 311 296 284 280 277 274 273 274 272 260 250 247 247
286 289 291 294 297 300 303 305 308 311 315 318 321 324 326 329 332 334 334 334 334 336 338 339 340 342 343 339 331 324 314 297 284 280 278 275 273 274 272 265 259 254
285 288 290 293 296 299 301 303 306 310 314 317 320 323 325 327 329 331 332 332 332 333 335 336 337 338 340 339 333 328 323 314 297 283 278 276 275 276 276 269 259 251
285 287 290 292 295 297 299 302 305 309 312 315 319 321 323 324 325 327 328 329 330 331 331 332 332 333 334 334 332 327 324 319 310 295 283 277 278 280 276 264 252 246
286 288 290 292 294 296 298 301 304 307 309 312 316 319 320 322 323 323 324 325 327 328 329 328 328 328 328 327 326 324 320 316 313 307 296 285 282 285 279 260 247 248
288 289 291 292 293 295 297 299 302 304 307 309 312 315 318 319 321 321 321 321 322 322 324 324 323 322 322 322 321 320 317 312 308 307 304 297 290 288 281 266 256 258
289 290 291 292 293 294 296 297 299 301 303 306 308 311 314 315 317 318 318 317 317 316 316 316 316 315 314 314 314 314 313 311 307 303 301 298 295 291 284 276 268 264
290 291 292 293 293 294 295 296 298 299 301 303 304 307 309 311 312 314 315 314 313 312 310 309 308 307 306 306 306 306 306 306 304 302 298 295 294 292 288 284 280 272
292 293 294 294 295 296 297 297 298 299 300 301 302 304 306 307 308 309 310 310 309 308 306 305 304 303 302 300 299 298 298 299 298 297 295 294 293 292 290 288 285 282
293 294 296 297 298 299 299 299 299 299 299 300 301 303 304 304 305 306 307 307 307 305 303 302 301 301 300 299 297 295 294 293 292 291 291 290 290 290 288 287 284 282